Погода в Саларе

Узбекистан     41°22′31″N   69°21′57″E
темп.,
°C
ветер,
м/с
пор.,
м/с
влажн.,
%
обл.,
%
осадки,
мм/ч
давл.,
гПа
погр.,
м
1 марта, пн
пн123:00+2всв236150 0.0 102229
02:00+2всв2254100 0.0 102123
05:00+2в3353100 0.0 102128
08:00+3в2349100 0.0 102131
11:00+10юв233750 0.0 1020178
14:00+14ю22250 0.0 1019377
17:00+13ююв12310 0.0 101926
20:00+8вюв45470 0.0 102093
2 марта, вт
вт223:00+7вюв44420 0.0 102178
02:00+6вюв23458 0.0 102127
05:00+6в114854 0.0 102222
08:00+6в1246100 0.0 102322
11:00+10юз1233100 0.0 1023338
14:00+13зюз1132100 0.0 1021451
17:00+13ссв2239100 0.0 1021366
20:00+9с4655100 0.0 1023191
3 марта, ср
ср323:00+7с3459100 0.0 1023112
02:00+7всв1166100 0.0 102482
05:00+6юв1272100 0.0 102440
08:00+6ююв117199 0.0 102563
11:00+10ю456099 0.1 1024761
14:00+12юз334472 0.1 10221306
17:00+12юз234582 0.1 10211254
20:00+9ю51058100 0.0 1022539
4 марта, чт
чт423:00+8ююв597299 0.1 1022463
02:00+7вюв467132 0.0 1020134
05:00+7в446416 0.0 102070
08:00+7вюв33570 0.0 102082
11:00+13ю344113 0.0 1017439
14:00+16ю463877 0.0 10161343
17:00+13ююз695589 0.6 1018956
20:00+10юв596988 0.3 1019376
5 марта, пт
пт523:00+10ю397779 2.5 1021504
02:00+6ссз7108491 0.3 1023463
05:00+2с699396 3.8 1027548
08:00+3с2382100 1.9 1031454
11:00+6сз225470 1.9 1030919
14:00+9с33400 0.0 10271046
17:00+8ссв56520 0.0 1026672
20:00+4ссв24690 0.0 1025127